TimeFJT,TemperatureF,Dew PointF,Humidity,Sea Level PressureIn,VisibilityMPH,Wind Direction,Wind SpeedMPH,Gust SpeedMPH,PrecipitationIn,Events,Conditions,WindDirDegrees,DateUTC
12:00 AM,75,72,87,29.73,12,SSE,4.6,,,,Partly Cloudy,150,2013-02-05 12:00:00
12:00 AM,75.2,71.6,89,29.71,24.9,SSE,5.8,-,N/A,,Partly Cloudy,150,2013-02-05 12:00:00
1:00 AM,75.2,71.6,89,29.71,24.9,Calm,Calm,-,N/A,,Partly Cloudy,0,2013-02-05 13:00:00
2:00 AM,73.4,71.6,94,29.68,24.9,Calm,Calm,-,N/A,,Partly Cloudy,0,2013-02-05 14:00:00
3:00 AM,73,72,95,29.68,12,Calm,Calm,,,,Partly Cloudy,,2013-02-05 15:00:00
3:00 AM,73.4,71.6,94,29.65,24.9,Calm,Calm,-,N/A,,Partly Cloudy,0,2013-02-05 15:00:00
4:00 AM,73.4,71.6,94,29.65,24.9,Calm,Calm,-,N/A,,Partly Cloudy,0,2013-02-05 16:00:00
5:00 AM,71.6,71.6,100,29.65,24.9,SSE,3.5,-,N/A,,Partly Cloudy,150,2013-02-05 17:00:00
6:00 AM,72,71,94,29.68,12,Calm,Calm,,,,Partly Cloudy,,2013-02-05 18:00:00
6:00 AM,71.6,69.8,94,29.68,28.0,Calm,Calm,-,N/A,,Partly Cloudy,0,2013-02-05 18:00:00
7:00 AM,73.4,71.6,94,29.68,31.1,ESE,5.8,-,N/A,,Partly Cloudy,120,2013-02-05 19:00:00
8:00 AM,80.6,73.4,79,29.71,31.1,Calm,Calm,-,N/A,,Partly Cloudy,0,2013-02-05 20:00:00
9:00 AM,83,73,64,29.72,31,Calm,Calm,,,,Partly Cloudy,,2013-02-05 21:00:00
9:00 AM,84.2,73.4,70,29.71,31.1,Calm,Calm,-,N/A,,Partly Cloudy,0,2013-02-05 21:00:00
10:00 AM,86.0,73.4,66,29.71,31.1,SSW,3.5,-,N/A,,Partly Cloudy,210,2013-02-05 22:00:00
11:00 AM,86.0,75.2,70,29.68,31.1,West,10.4,-,N/A,,Scattered Clouds,270,2013-02-05 23:00:00
12:00 PM,87,77,66,29.68,31,West,13.8,,,,Partly Cloudy,270,2013-02-06 00:00:00
12:00 PM,86.0,77.0,74,29.68,31.1,West,13.8,-,N/A,,Scattered Clouds,270,2013-02-06 00:00:00
1:00 PM,87.8,77.0,70,29.65,31.1,West,16.1,-,N/A,,Partly Cloudy,270,2013-02-06 01:00:00
2:00 PM,86.0,77.0,74,29.62,31.1,WSW,17.3,-,N/A,,Partly Cloudy,250,2013-02-06 02:00:00
3:00 PM,87,77,65,29.63,31,WSW,19.6,,,,Partly Cloudy,250,2013-02-06 03:00:00
3:00 PM,86.0,77.0,74,29.62,31.1,WSW,19.6,-,N/A,,Scattered Clouds,250,2013-02-06 03:00:00
4:00 PM,86.0,77.0,74,29.62,31.1,WSW,13.8,-,N/A,,Scattered Clouds,240,2013-02-06 04:00:00
5:00 PM,84.2,75.2,74,29.62,31.1,SW,11.5,-,N/A,,Scattered Clouds,220,2013-02-06 05:00:00
6:00 PM,78,75,87,29.68,31,ENE,10.4,,,,Partly Cloudy,60,2013-02-06 06:00:00
6:00 PM,78.8,75.2,89,29.68,31.1,ENE,10.4,-,N/A,,Scattered Clouds,60,2013-02-06 06:00:00
7:00 PM,75.2,75.2,100,29.68,28.0,East,6.9,-,N/A,Rain,Light Rain Showers,90,2013-02-06 07:00:00
8:00 PM,75.2,75.2,100,29.71,24.9,ESE,9.2,-,N/A,Rain,Light Rain,120,2013-02-06 08:00:00
9:00 PM,75.2,73.4,94,29.74,24.9,ESE,6.9,-,N/A,Rain,Light Rain,120,2013-02-06 09:00:00
10:00 PM,73.4,73.4,100,29.74,24.9,ESE,5.8,-,N/A,Rain,Light Rain,120,2013-02-06 10:00:00
11:00 PM,75.2,73.4,94,29.74,24.9,ESE,9.2,-,N/A,,Mostly Cloudy,110,2013-02-06 11:00:00